Flag for Comoros Weather past 2 weeks in Moroni, Comoros

Now
90 °F

Passing clouds.


Feels Like: 92 °F
Forecast: 76 / 86 °F
Wind: 13 mph from East

Location: Hahaya International Airport

Current Time: Oct 25, 2014 at 12:14:51 PM

Latest Report: Oct 25, 2014 at 11:00 AM


Visibility: N/A

Pressure: 29.98 "Hg

Humidity: 46%

Dew point: 66 °F

Location of MoroniLocation

Historic Weather in Moroni — Graph

°F

Moroni temperature yesterday

Maximum temperature yesterday: 90 °F (at 10:00 AM)
Minimum temperature yesterday: 73 °F (at 6:00 AM)
Average temperature yesterday: 82 °F

Past Weeks' High & Low Weather Summary

 TemperatureHumidityPressure
High91 °F (Oct 17, 1:00 PM)100% (Oct 12, 4:00 AM)30.07 "Hg (Oct 12, 4:00 AM)
Low70 °F (Oct 15, 6:00 AM)41% (Oct 11, 2:00 PM)29.83 "Hg (Oct 16, 4:00 PM)
Average81 °F69%29.96 "Hg
* Reported Oct 10 11:00 AM — Oct 25 11:00 AM, Moroni, Weather by CustomWeather, © 2014

Note: Actual official high and low records may vary slightly from our data, if they occured in-between our weather recording intervals... More about our weather records

Advertising

Moroni weather history for previous 24 hours

 ConditionsComfort  
Time TempWeatherWind HumidityBarometerVisibility
11:00 AM
Oct 25
90 °FPassing clouds.13 mph46%29.98 "HgN/A
10:00 AM90 °FPassing clouds.12 mph49%29.98 "HgN/A
9:00 AM86 °FPassing clouds.12 mph55%29.98 "HgN/A
8:00 AM84 °FPassing clouds.12 mph58%29.98 "HgN/A
7:00 AM81 °FPassing clouds.10 mph66%29.95 "HgN/A
6:00 AM75 °FPassing clouds.No wind83%29.95 "HgN/A
5:00 AM73 °FPassing clouds.6 mph89%29.92 "HgN/A
4:00 AM73 °FPassing clouds.8 mph89%29.92 "HgN/A
3:00 AM73 °FPassing clouds.3 mph89%29.92 "HgN/A
2:00 AM75 °FPassing clouds.6 mph83%29.92 "HgN/A
1:00 AM77 °FPassing clouds.9 mph79%29.92 "HgN/A
12:00 AM77 °FPassing clouds.7 mph79%29.95 "HgN/A
11:00 PM
Oct 24
77 °FPassing clouds.6 mph79%29.95 "HgN/A
10:00 PM79 °FPassing clouds.6 mph74%29.95 "HgN/A
9:00 PM79 °FPassing clouds.7 mph74%29.95 "HgN/A
8:00 PM79 °FPassing clouds.5 mph74%29.95 "HgN/A
7:00 PM81 °FPassing clouds.6 mph84%29.92 "HgN/A
6:00 PM82 °FPassing clouds.5 mph74%29.92 "HgN/A
5:00 PM84 °FScattered clouds.6 mph66%29.95 "HgN/A
3:00 PM84 °FScattered clouds.7 mph70%29.95 "HgN/A
1:00 PM86 °FScattered clouds.7 mph59%29.95 "HgN/A
12:00 PM84 °FScattered clouds.9 mph66%30.01 "HgN/A
Weather by CustomWeather, © 2014

See weather overviewHow to use our weather pages